Weather History for Arlington, WA

Change the Weather History Date:

Sunday, January 6, 2013

  Actual Average Record
Temperature  
Mean Temperature 42 °F -  
Max Temperature 44 °F 42 °F 57 °F (2003)
Min Temperature 39 °F 20 °F 9 °F (1979)
Degree Days  
Heating Degree Days 24    
Moisture  
Dew Point 37 °F    
Average Humidity 84    
Maximum Humidity 93    
Minimum Humidity 76    
Precipitation  
Precipitation 0.00 in - - ()
Sea Level Pressure  
Sea Level Pressure 30.13 in    
Wind  
Wind Speed 10 mph (SE)    
Max Wind Speed 17 mph    
Max Gust Speed 22 mph    
Visibility 10 miles    
Events      
Averages and records for this station are not official NWS values.
T = Trace of Precipitation, MM = Missing Value Source: NWS Daily Summary

Daily Weather History Graph

Daily Weather History Graph

Search for Another Location

Airport:

Trip Planner

Search our weather history database for the weather conditions in past years. The results will help you decide how hot, cold, wet, or windy it might be!

Date:

Astronomy

Jan. 06, 2013 Rise Set
Actual Time 7:58 AM PST 4:31 PM PST
Civil Twilight 7:22 AM PST 5:07 PM PST
Nautical Twilight 6:43 AM PST 5:46 PM PST
Astronomical Twilight 6:05 AM PST 6:24 PM PST
Moon 2:08 AM PST (1/6) 12:10 PM PST (1/6)
Length of Visible Light 9h 44m
Length of Day
8h 33m
Waning Crescent, 32% of the Moon is Illuminated
Jan 6
Waning Crescent
Jan 11
New
Jan 18
First Quarter
Jan 26
Full
Feb 3
Last Quarter

Hourly Weather History & Observations

Time (PST) Temp. Windchill Dew Point Humidity Pressure Visibility Wind Dir Wind Speed Gust Speed Precip Events Conditions
12:15 AM 39.2 °F 33.0 °F 37.4 °F 93% 30.16 in 5.0 mi SSE 9.2 mph - N/A   Overcast
12:35 AM 39.2 °F 33.6 °F 37.4 °F 93% 30.16 in 9.0 mi SSE 8.1 mph - N/A   Overcast
12:55 AM 39.2 °F 33.0 °F 37.4 °F 93% 30.16 in 10.0 mi SE 9.2 mph - N/A   Overcast
1:35 AM 39.2 °F 32.0 °F 37.4 °F 93% 30.16 in 10.0 mi SE 11.5 mph - N/A   Overcast
1:55 AM 39.2 °F 34.2 °F 37.4 °F 93% 30.17 in 10.0 mi SSE 6.9 mph - N/A   Overcast
2:15 AM 39.2 °F 35.0 °F 37.4 °F 93% 30.18 in 10.0 mi SSE 5.8 mph - N/A   Overcast
2:35 AM 39.2 °F 34.2 °F 37.4 °F 93% 30.18 in 10.0 mi SSE 6.9 mph - N/A   Overcast
2:55 AM 39.2 °F 31.2 °F 37.4 °F 93% 30.18 in 10.0 mi SE 13.8 mph - N/A   Overcast
3:15 AM 39.2 °F 32.0 °F 37.4 °F 93% 30.18 in 10.0 mi SE 11.5 mph - N/A   Overcast
3:35 AM 39.2 °F 33.6 °F 37.4 °F 93% 30.17 in 10.0 mi SE 8.1 mph - N/A   Overcast
3:55 AM 39.2 °F 34.2 °F 37.4 °F 93% 30.17 in 10.0 mi SE 6.9 mph - N/A   Overcast
4:35 AM 41.0 °F 35.8 °F 37.4 °F 87% 30.16 in 10.0 mi SE 8.1 mph - N/A   Overcast
4:55 AM 41.0 °F 36.4 °F 37.4 °F 87% 30.16 in 10.0 mi SE 6.9 mph - N/A   Overcast
5:15 AM 41.0 °F 37.1 °F 37.4 °F 87% 30.16 in 10.0 mi SE 5.8 mph - N/A   Overcast
5:35 AM 41.0 °F - 37.4 °F 87% 30.16 in 10.0 mi Calm Calm - N/A   Overcast
5:55 AM 41.0 °F - 37.4 °F 87% 30.16 in 10.0 mi Calm Calm - N/A   Overcast
6:15 AM 41.0 °F - 37.4 °F 87% 30.16 in 10.0 mi Calm Calm - N/A   Overcast
6:35 AM 41.0 °F 38.0 °F 35.6 °F 81% 30.16 in 10.0 mi SSE 4.6 mph - N/A   Overcast
6:55 AM 41.0 °F 39.0 °F 37.4 °F 87% 30.15 in 10.0 mi SE 3.5 mph - N/A   Overcast
7:15 AM 41.0 °F 36.4 °F 37.4 °F 87% 30.15 in 10.0 mi SE 6.9 mph - N/A   Overcast
7:35 AM 42.8 °F 37.5 °F 35.6 °F 76% 30.16 in 10.0 mi SE 9.2 mph - N/A   Overcast
7:55 AM 42.8 °F 37.5 °F 37.4 °F 81% 30.17 in 10.0 mi SE 9.2 mph - N/A   Overcast
8:15 AM 42.8 °F 37.0 °F 37.4 °F 81% 30.17 in 10.0 mi SSE 10.4 mph - N/A   Overcast
8:35 AM 42.8 °F 37.0 °F 37.4 °F 81% 30.18 in 10.0 mi SE 10.4 mph - N/A   Overcast
8:55 AM 42.8 °F 36.2 °F 37.4 °F 81% 30.18 in 10.0 mi SE 12.7 mph - N/A   Overcast
9:15 AM 42.8 °F 35.1 °F 37.4 °F 81% 30.17 in 10.0 mi SSE 16.1 mph - N/A   Overcast
9:35 AM 42.8 °F 35.1 °F 37.4 °F 81% 30.18 in 10.0 mi SE 16.1 mph - N/A   Overcast
9:55 AM 42.8 °F 37.0 °F 37.4 °F 81% 30.18 in 10.0 mi SSE 10.4 mph - N/A   Overcast
10:15 AM 42.8 °F 35.8 °F 37.4 °F 81% 30.19 in 10.0 mi SSE 13.8 mph - N/A   Overcast
10:35 AM 42.8 °F 36.6 °F 37.4 °F 81% 30.19 in 10.0 mi SE 11.5 mph - N/A   Overcast
10:55 AM 44.6 °F 38.8 °F 37.4 °F 76% 30.18 in 10.0 mi SSE 11.5 mph - N/A   Overcast
11:15 AM 44.6 °F 38.1 °F 37.4 °F 76% 30.17 in 10.0 mi SSE 13.8 mph - N/A   Overcast
11:35 AM 44.6 °F 38.8 °F 37.4 °F 76% 30.16 in 10.0 mi SSE 11.5 mph 19.6 mph N/A   Overcast
11:55 AM 44.6 °F 38.8 °F 39.2 °F 81% 30.14 in 10.0 mi SE 11.5 mph - N/A   Overcast
12:15 PM 44.6 °F 37.4 °F 37.4 °F 76% 30.14 in 10.0 mi SSE 16.1 mph - N/A   Overcast
12:35 PM 44.6 °F 38.1 °F 37.4 °F 76% 30.13 in 10.0 mi SSE 13.8 mph 19.6 mph N/A   Overcast
12:55 PM 44.6 °F 38.8 °F 37.4 °F 76% 30.13 in 10.0 mi SSE 11.5 mph 19.6 mph N/A   Overcast
1:15 PM 44.6 °F 39.2 °F 37.4 °F 76% 30.13 in 10.0 mi SSE 10.4 mph - N/A   Overcast
1:35 PM 44.6 °F 37.2 °F 37.4 °F 76% 30.12 in 10.0 mi SE 17.3 mph 20.7 mph N/A   Overcast
1:55 PM 44.6 °F 38.8 °F 37.4 °F 76% 30.12 in 10.0 mi SSE 11.5 mph - N/A   Overcast
2:35 PM 44.6 °F 38.4 °F 37.4 °F 76% 30.12 in 10.0 mi SSE 12.7 mph - N/A   Mostly Cloudy
2:55 PM 44.6 °F 38.4 °F 37.4 °F 76% 30.11 in 10.0 mi SE 12.7 mph 20.7 mph N/A   Overcast
3:15 PM 44.6 °F 38.8 °F 37.4 °F 76% 30.11 in 10.0 mi SSE 11.5 mph - N/A   Overcast
3:35 PM 44.6 °F 38.4 °F 39.2 °F 81% 30.10 in 10.0 mi SE 12.7 mph - N/A   Overcast
3:55 PM 42.8 °F 35.8 °F 37.4 °F 81% 30.11 in 10.0 mi SE 13.8 mph - N/A   Overcast
4:15 PM 42.8 °F 35.1 °F 39.2 °F 87% 30.11 in 10.0 mi ESE 16.1 mph 21.9 mph N/A   Overcast
4:35 PM 42.8 °F 35.8 °F 37.4 °F 81% 30.10 in 10.0 mi ESE 13.8 mph 19.6 mph N/A   Overcast
4:55 PM 42.8 °F 35.4 °F 37.4 °F 81% 30.09 in 10.0 mi ESE 15.0 mph 20.7 mph N/A   Overcast
5:15 PM 42.8 °F 35.4 °F 37.4 °F 81% 30.08 in 10.0 mi ESE 15.0 mph - N/A   Overcast
5:35 PM 42.8 °F 35.8 °F 37.4 °F 81% 30.08 in 10.0 mi ESE 13.8 mph 19.6 mph N/A   Overcast
5:55 PM 42.8 °F 35.8 °F 37.4 °F 81% 30.08 in 10.0 mi SE 13.8 mph - N/A   Overcast
6:15 PM 42.8 °F 36.6 °F 37.4 °F 81% 30.08 in 10.0 mi SE 11.5 mph - N/A   Overcast
6:35 PM 41.0 °F 34.7 °F 37.4 °F 87% 30.08 in 10.0 mi SE 10.4 mph - N/A   Overcast
7:15 PM 42.8 °F 36.2 °F 37.4 °F 81% 30.08 in 10.0 mi SE 12.7 mph - N/A   Overcast
7:35 PM 42.8 °F 36.6 °F 37.4 °F 81% 30.08 in 10.0 mi SE 11.5 mph - N/A   Overcast
8:15 PM 41.0 °F 34.7 °F 37.4 °F 87% 30.08 in 10.0 mi SE 10.4 mph - N/A   Overcast
8:35 PM 41.0 °F 34.3 °F 37.4 °F 87% 30.07 in 10.0 mi SE 11.5 mph - N/A   Overcast
8:55 PM 41.0 °F 33.5 °F 37.4 °F 87% 30.07 in 10.0 mi ESE 13.8 mph 19.6 mph N/A   Overcast
9:35 PM 39.2 °F 30.2 °F 35.6 °F 87% 30.04 in 10.0 mi SE 17.3 mph 20.7 mph N/A   Overcast
9:55 PM 39.2 °F 33.0 °F 35.6 °F 87% 30.03 in 10.0 mi ESE 9.2 mph - N/A   Overcast
10:15 PM 39.2 °F 33.6 °F 35.6 °F 87% 30.04 in 10.0 mi ESE 8.1 mph - N/A   Overcast
10:35 PM 39.2 °F 33.6 °F 35.6 °F 87% 30.03 in 10.0 mi ESE 8.1 mph - N/A   Overcast
10:55 PM 39.2 °F 33.6 °F 35.6 °F 87% 30.02 in 10.0 mi ESE 8.1 mph - N/A   Overcast
11:15 PM 41.0 °F 35.8 °F 35.6 °F 81% 30.01 in 10.0 mi ESE 8.1 mph - N/A   Overcast
11:35 PM 41.0 °F 35.2 °F 37.4 °F 87% 30.00 in 10.0 mi ESE 9.2 mph - N/A   Overcast
11:55 PM 39.2 °F 34.2 °F 37.4 °F 93% 30.00 in 10.0 mi East 6.9 mph - N/A   Overcast